Theta_e
319 322 323 324 337 339 340 340 341 340 340 339 339 339 339 337 336 336 337 337 337 337 337 336 336 335 334 334 333 333 334 334 332 332 333 332 331 330 329 328 331 333 329
318 320 322 321 326 337 339 338 339 340 340 339 338 339 338 338 338 336 337 337 337 337 336 336 336 336 334 334 334 334 333 332 330 331 332 329 328 328 328 327 328 330 326
318 318 318 319 322 334 339 339 339 338 339 339 339 339 338 339 339 339 338 338 338 338 337 337 336 335 335 334 333 333 332 333 331 331 331 328 327 326 326 327 327 325 324
318 318 319 318 318 322 333 338 340 338 339 339 338 338 339 339 339 339 339 339 338 337 336 336 336 335 334 333 333 332 331 331 329 330 329 331 330 327 325 324 324 324 324
317 318 316 318 318 318 319 326 337 339 339 339 339 338 337 338 337 338 338 338 337 337 337 335 334 330 328 326 323 323 324 325 325 325 325 323 323 324 323 321 322 321 323
315 315 318 319 318 318 317 317 322 334 337 336 338 337 337 337 335 334 335 335 333 328 318 315 314 314 315 316 317 319 320 321 321 322 321 319 320 321 322 320 320 320 320
313 313 315 315 316 317 317 316 316 318 327 333 336 336 335 335 330 326 323 320 317 315 315 315 315 314 314 315 315 315 315 316 318 320 318 317 318 318 318 320 320 319 320
305 308 312 315 315 317 317 317 316 316 317 320 324 328 330 330 325 321 317 315 315 315 316 316 316 314 312 312 311 311 311 313 315 318 317 317 319 321 321 321 320 316 317
307 306 307 309 312 316 317 317 316 316 316 316 317 317 317 317 317 316 316 315 315 315 315 315 313 311 310 310 309 309 310 313 316 316 315 313 315 316 316 317 320 319 317
310 309 308 309 309 311 317 317 316 315 315 315 315 316 316 316 315 314 314 313 314 314 313 310 309 309 308 308 308 308 310 311 312 313 312 312 314 314 315 316 316 317 317
310 310 309 311 311 312 315 317 316 315 315 315 314 314 313 313 313 313 313 312 312 311 309 308 308 307 307 306 306 308 308 309 309 310 310 311 311 310 310 311 312 311 312
310 310 310 311 311 312 314 315 315 314 314 313 313 313 313 312 311 311 311 310 309 308 307 306 306 305 305 305 305 306 306 307 307 307 307 307 307 307 307 307 308 307 307
309 309 309 309 310 311 312 313 312 312 312 312 311 311 310 310 309 309 309 308 307 306 305 304 304 303 303 302 303 303 304 305 306 305 305 305 305 305 305 304 304 303 302
307 306 307 307 310 311 311 311 310 311 311 310 310 309 309 308 307 307 306 305 304 304 303 302 301 301 301 300 300 301 301 302 301 301 301 301 301 301 300 300 300 298 299
307 306 305 305 308 310 311 311 310 310 309 309 308 307 307 306 305 305 304 303 303 302 301 301 300 300 299 298 298 298 299 300 299 298 298 297 297 297 297 297 297 297 297
306 305 304 304 306 309 310 310 310 309 308 308 307 306 305 305 304 303 303 301 301 300 300 300 299 299 298 297 296 297 298 297 297 296 295 295 294 294 294 295 294 295 295
305 305 304 304 305 306 310 310 310 309 307 307 306 305 304 303 302 301 300 300 299 299 299 298 298 297 296 296 296 296 296 296 295 294 293 293 292 290 289 289 288 289 289
305 304 304 305 305 306 307 311 310 309 307 306 305 304 303 303 302 300 299 299 298 297 297 297 296 295 295 295 294 295 295 294 294 293 292 288 286 285 286 286 287 287 287
304 304 305 305 304 305 307 309 309 309 307 306 305 304 303 302 301 299 299 297 296 296 296 296 295 294 294 293 292 293 293 293 292 289 287 288 288 287 286 286 285 286 286
300 301 305 304 304 305 307 308 308 307 306 306 305 304 303 302 300 299 298 296 296 295 295 295 294 294 293 293 290 288 288 286 285 286 287 288 288 289 286 286 285 284 285
299 300 304 303 304 305 307 307 307 306 307 306 305 303 302 301 300 298 296 295 295 295 294 293 293 292 292 291 289 286 285 285 285 285 286 286 288 287 287 285 285 284 285
298 298 301 303 304 304 304 305 305 306 305 304 303 302 301 300 298 296 294 294 294 294 293 292 292 291 291 288 289 288 286 285 285 285 285 285 286 286 286 287 286 285 284
298 299 299 302 303 303 302 303 304 304 303 302 301 300 299 298 297 295 293 293 293 293 292 291 290 290 288 287 289 289 288 287 285 285 285 285 285 285 284 284 285 286 284
297 297 298 300 302 302 302 302 303 303 302 301 300 299 298 297 296 294 293 293 292 291 291 291 290 290 289 288 287 290 290 289 289 286 285 285 285 284 284 283 283 283 283
297 297 298 299 302 303 302 302 301 301 301 299 298 298 297 296 295 293 293 293 293 294 292 292 292 291 288 288 287 287 288 289 289 288 286 285 285 285 285 284 283 282 281
299 299 299 301 302 302 302 302 301 300 300 298 297 297 296 295 294 293 292 292 293 293 293 293 293 292 292 289 287 287 285 285 286 288 286 285 284 284 284 284 284 283 282
Wind_Speed
9 21 23 22 23 24 24 26 24 25 25 24 22 24 21 18 19 17 15 17 16 14 15 15 13 12 13 12 11 11 11 14 15 14 15 17 17 20 17 21 22 21 12
9 14 24 26 26 29 26 24 29 29 29 27 25 25 25 21 19 19 17 16 16 15 17 16 15 15 13 13 14 14 16 16 16 14 13 3 7 11 14 15 15 12 6
9 10 20 27 26 26 29 29 29 27 27 28 27 21 22 20 20 20 19 16 18 16 14 15 15 16 16 16 15 16 18 18 19 18 9 2 3 2 2 1 4 6 7
3 5 17 20 26 25 23 25 30 27 29 27 27 28 27 21 25 24 22 19 17 17 16 17 17 17 18 19 19 19 19 18 17 18 20 18 13 2 3 4 4 3 6
6 6 9 19 25 22 19 20 23 28 29 28 28 28 26 23 18 19 19 20 18 18 18 16 16 14 14 13 13 13 12 13 14 13 14 13 14 16 7 3 7 10 9
7 7 15 22 20 16 14 14 14 17 20 26 28 25 26 20 19 20 20 19 16 14 12 10 10 10 9 10 10 11 10 10 11 12 13 13 9 5 8 4 6 7 14
4 6 9 12 16 18 20 19 18 19 19 18 23 22 22 20 20 20 18 18 17 14 11 11 9 8 9 9 10 11 12 12 12 13 14 14 18 19 20 16 8 8 10
7 6 5 5 10 22 24 22 21 21 20 19 19 19 20 22 22 20 17 15 13 14 13 12 8 10 9 10 11 12 12 12 12 13 14 14 14 14 15 17 12 2 7
7 7 7 4 1 16 21 22 21 19 16 18 18 20 18 19 20 20 20 21 16 13 12 11 11 10 9 10 11 11 10 10 10 11 10 14 13 13 16 16 16 9 2
7 7 7 7 2 4 16 19 18 19 19 16 18 20 22 21 18 18 20 20 15 13 12 10 9 8 8 9 9 9 9 9 9 9 9 9 7 7 7 8 10 11 10
4 2 1 5 6 7 10 17 17 18 18 19 19 17 16 14 12 12 12 11 13 11 9 7 8 8 8 8 8 10 11 10 10 9 10 9 7 7 5 3 3 4 5
2 2 2 1 3 5 5 11 14 18 20 19 17 16 14 14 14 12 11 9 7 7 7 7 7 8 9 7 8 9 9 9 8 9 9 8 7 8 7 7 7 8 5
4 3 3 6 8 8 8 9 12 19 19 18 18 16 16 15 13 13 11 9 8 7 7 8 8 9 9 8 8 8 8 9 10 10 9 10 11 10 9 8 9 8 6
6 5 4 9 12 13 12 11 13 17 18 17 17 17 15 12 11 11 10 8 7 7 8 8 9 9 8 8 9 9 9 9 8 8 8 9 8 5 5 5 7 5 3
7 7 7 6 15 15 15 15 15 16 18 19 18 17 15 14 14 13 12 10 10 10 9 9 8 7 8 9 9 10 10 11 9 7 6 5 6 6 6 6 6 6 6
7 8 8 10 11 18 23 22 22 22 21 21 21 19 19 18 16 14 12 11 10 10 10 9 8 7 7 8 8 10 11 10 10 10 8 7 6 7 5 6 6 6 6
7 8 8 12 19 19 25 28 29 27 25 24 23 22 21 19 17 14 12 11 10 10 10 9 8 8 6 5 6 9 11 11 11 11 11 8 6 5 8 8 7 7 4
8 8 12 20 24 25 17 32 31 30 29 26 24 23 22 19 16 14 13 10 11 11 10 9 9 9 6 7 8 9 10 11 10 11 9 6 6 5 4 6 6 5 4
12 17 19 21 25 24 19 24 31 31 30 29 26 25 24 21 20 18 16 14 13 12 11 10 10 10 8 8 9 11 11 12 12 10 9 6 6 5 4 5 6 5 4
19 22 23 23 22 21 18 16 29 31 31 31 27 24 24 22 22 18 15 16 15 13 13 12 12 11 10 8 9 9 11 12 12 10 7 5 7 6 5 6 5 6 7
24 27 25 20 19 18 14 15 22 28 29 23 22 22 23 22 20 17 17 17 16 15 14 14 13 13 12 12 12 10 10 10 10 10 10 10 8 7 6 4 5 4 5
21 25 24 23 17 15 9 8 13 17 16 18 21 21 21 20 19 16 17 17 17 17 17 15 14 14 13 13 13 12 11 9 10 10 9 8 9 8 7 6 4 4 5
21 23 22 25 19 14 11 10 11 13 16 18 19 20 20 19 17 18 18 19 19 19 18 17 16 16 16 16 13 14 13 11 11 10 9 9 9 7 7 7 6 7 8
21 23 21 20 23 15 13 13 10 14 16 18 19 19 19 17 16 17 18 21 22 21 20 19 18 17 17 18 18 16 16 14 12 10 10 10 9 8 7 6 7 9 9
19 21 20 19 20 17 13 12 11 16 16 16 18 19 19 18 19 20 21 23 24 24 23 22 21 19 19 21 19 18 20 19 17 14 12 12 11 11 10 10 9 10 10
18 16 18 18 19 18 14 13 13 17 17 18 19 22 22 21 21 21 20 19 20 20 19 18 19 18 18 16 16 17 17 17 17 17 17 16 14 13 12 11 10 11 11
Wind_Direction
199 199 188 191 190 196 199 200 195 199 195 201 202 207 202 205 212 206 214 211 213 215 217 222 223 231 238 242 247 254 264 271 278 284 278 282 279 277 283 287 280 271 260
239 186 193 191 191 194 200 202 205 202 202 202 197 193 199 201 211 212 213 212 217 212 214 220 227 234 243 245 251 260 268 272 277 271 281 287 286 264 262 280 276 249 209
217 189 183 189 197 189 195 198 205 206 206 208 208 205 204 211 210 212 216 203 211 214 222 228 235 242 246 251 257 259 267 273 273 278 270 288 239 327 247 263 223 234 243
209 173 187 185 202 203 193 200 204 204 206 211 212 211 203 203 212 212 214 202 206 218 223 227 233 239 245 255 260 263 267 272 274 278 274 261 265 263 299 259 231 296 270
173 155 185 181 195 196 198 197 206 209 208 206 215 218 219 210 207 200 198 202 206 210 223 234 240 245 249 253 259 264 263 265 266 265 270 275 280 277 255 262 272 286 278
200 175 207 195 201 199 209 211 202 203 203 208 208 212 216 207 194 195 194 199 199 211 219 225 232 237 245 251 256 259 261 263 263 263 263 265 262 277 257 237 233 255 273
218 176 175 188 186 194 203 209 213 218 218 210 206 202 202 202 194 196 194 190 192 197 212 216 226 243 248 254 260 265 267 266 266 264 268 265 260 262 264 271 254 229 236
58 60 137 213 221 203 203 207 210 214 214 225 221 220 212 204 201 200 193 194 194 202 202 218 234 252 253 261 266 267 267 266 261 259 262 264 267 262 263 252 229 220 221
45 42 36 63 334 224 219 215 209 213 217 212 205 200 192 190 192 186 192 189 198 199 209 228 244 243 254 261 263 263 259 253 247 247 257 276 270 264 260 256 255 224 229
40 20 7 10 325 268 234 224 219 214 211 212 207 189 186 197 199 204 208 187 196 214 226 231 240 248 253 258 264 259 246 248 245 250 264 255 257 254 247 237 250 237 223
168 154 324 333 336 307 242 221 211 208 201 198 191 193 183 186 191 207 215 204 182 204 222 232 240 248 254 258 261 252 256 245 243 248 245 238 237 236 235 235 236 242 220
263 228 184 283 267 275 245 219 212 196 194 190 191 195 199 198 191 191 199 206 212 212 224 232 246 246 247 253 255 247 249 235 233 236 233 222 221 231 243 246 253 241 234
2 260 209 214 208 214 223 212 201 188 182 186 189 193 194 193 192 196 209 216 223 225 232 239 230 238 249 252 245 233 233 228 216 225 222 239 233 230 225 212 226 226 227
351 341 274 247 221 210 209 202 184 184 187 185 186 184 193 195 193 192 202 221 225 226 232 233 236 243 252 252 242 233 219 214 210 215 219 216 211 206 217 219 223 221 219
8 352 341 294 251 219 212 211 206 199 194 189 191 196 196 196 195 197 208 220 219 218 217 222 239 259 274 266 258 233 225 232 228 217 215 211 198 188 183 177 176 181 173
346 334 325 325 326 250 210 207 211 210 204 200 200 197 196 198 204 210 210 213 215 209 216 234 235 242 250 264 253 230 212 203 193 177 173 172 168 146 158 167 171 182 194
327 320 314 312 318 310 244 210 207 206 207 213 210 206 206 207 206 205 208 212 211 217 224 224 224 225 229 231 216 216 205 196 187 178 178 171 175 165 137 115 111 101 114
319 312 311 314 316 313 311 224 209 204 205 208 210 210 207 207 203 200 206 217 215 218 223 220 216 216 211 198 216 209 202 194 194 190 184 174 177 159 183 152 148 145 126
315 304 312 314 316 308 315 233 209 204 204 208 211 210 207 205 198 201 203 211 211 212 218 217 210 208 201 213 220 215 212 194 179 173 167 165 161 148 193 176 166 171 160
328 323 313 323 322 317 311 232 208 201 204 209 209 210 209 212 207 209 217 212 213 217 214 211 210 210 208 210 182 181 167 172 174 172 164 183 187 179 207 194 174 188 197
316 323 316 314 317 321 315 232 208 204 212 212 208 207 211 214 215 210 212 207 208 206 204 205 206 209 212 202 188 192 188 195 187 187 191 190 193 197 202 213 201 199 196
323 324 319 307 320 313 308 231 216 215 211 203 202 204 204 208 207 220 213 210 208 204 204 205 207 211 212 203 201 202 212 203 204 201 204 202 201 209 212 214 217 204 232
318 320 317 306 309 302 284 251 237 213 202 202 202 199 199 206 219 219 213 211 211 207 207 209 215 215 213 211 212 208 211 205 211 207 208 207 209 214 212 216 218 216 238
311 309 312 311 297 297 280 261 245 208 206 205 204 198 198 206 221 223 221 218 211 208 208 207 217 220 215 215 211 210 212 212 213 214 204 206 219 230 239 223 220 231 238
304 297 297 297 294 297 275 263 249 215 208 210 209 206 209 218 221 226 224 226 231 225 216 218 220 216 219 221 220 218 217 216 219 217 217 221 219 224 234 244 246 244 239
312 314 322 326 311 306 276 258 244 224 220 214 212 215 216 216 224 226 228 232 240 238 231 235 231 229 238 233 227 226 224 221 216 212 222 224 225 232 237 239 246 247 246